Regional Weather Roundup
Issued by NWS Green Bay, WI

Home | Current Version | Previous Version | Graphics & Text | Print | Product List | Glossary Off
Versions: 1 2 3 4 5 6 7 8 9 10 11 12 13 14 15 16 17 18 19 20 21 22 23 24 25 26 27 28 29 30 31 32 33 34 35 36 37 38 39 40 41 42 43 44 45 46 47 48 49 50

000
ASUS43 KGRB 190600
RWRGRB

NORTH-CENTRAL AND NORTHEAST WISCONSIN REGIONAL WEATHER ROUNDUP
NATIONAL WEATHER SERVICE GREEN BAY WI
100 AM CDT TUE SEP 19 2017

WIZ005-009-010>012-018-019-190700-
NORTH CENTRAL WISCONSIN

CITY           SKY/WX    TMP DP  RH WIND       PRES   REMARKS
IRONWOOD       CLOUDY    56  53  90 VRB5      30.03F
MANITOWISH WTR NOT AVBL
ARBOR VITAE    NOT AVBL
EAGLE RIVER    NOT AVBL
LAND O LAKES   NOT AVBL
RHINELANDER    CLOUDY    56  55  97 SE7       30.05F
PHILLIPS       NOT AVBL
ANTIGO         NOT AVBL
TOMAHAWK       NOT AVBL
MERRILL        NOT AVBL
$$

WIZ013-073-190700-
NORTHEAST WISCONSIN

CITY           SKY/WX    TMP DP  RH WIND       PRES   REMARKS
IRON MOUNTAIN  CLOUDY    57  52  83 N5        30.06F
MARINETTE      CLOUDY    57  53  86 N6        30.06S
$$

WIZ017-030-035>037-045-190700-
CENTRAL WISCONSIN

CITY           SKY/WX    TMP DP  RH WIND       PRES   REMARKS
MEDFORD        NOT AVBL
WAUSAU         CLOUDY    57  54  89 E6        30.02F
MOSINEE        NOT AVBL
MARSHFIELD     MOCLDY    58  54  86 E7        30.00F
WISC RAPIDS    CLOUDY    60  55  83 E6        30.02S
STEVENS POINT  NOT AVBL
WAUPACA        NOT AVBL
SHAWANO        NOT AVBL
CLINTONVILLE   NOT AVBL
WAUTOMA        CLOUDY    59  55  87 NE3       30.01F
$$

WIZ038-039-048-051-190700-
FOX VALLEY

CITY           SKY/WX    TMP DP  RH WIND       PRES   REMARKS
NWS GREEN BAY  CLOUDY    59  55  87 N6        30.03R
APPLETON       NOT AVBL
OSHKOSH        CLOUDY    62  56  80 E5        30.00F
FOND DU LAC    CLOUDY    62  53  72 NE5       30.01S
$$

WIZ022-050-052-190700-
EAST CENTRAL WISCONSIN

CITY           SKY/WX    TMP DP  RH WIND       PRES   REMARKS
EPHRAIM        NOT AVBL
WASHINGTON ISL NOT AVBL
STURGEON BAY   CLOUDY    60  55  83 NE3       30.04S
MANITOWOC      MOCLDY    58  55  90 NW7       30.02S
SHEBOYGAN      MOCLDY    57  57 100 NW5       30.00S
$$

LMZ563-521-522-541>543-190700-
LAKESHORE

STATION/POSITION TIME  TEMP    WIND        PRES    VSBY  WAVE
                       AIR SEA DIR/SP/G                  HT/PER
                 (UTC) (F)     (DEG/KT/KT) (MB)    (MI)  (FT/S)
SHEBOYGAN LKSHOR 0500   61     320/  3/  3 1015.4F
KEWAUNEE LKSHORE 0530   61     330/  2/  5 1015.4F
NORTHPORT PIER   0540   65      80/  6/  8 1017.3S
N MID LAKE BUOY  0450   64 65  100/ 14/ 16 1017.6F         1/ 3
S GREEN BAY BUOY 0530   63 66   40/  6/  8 1016.9F
SISTER BAY LKSHO 0504   62        CALM       N/A
MENOMINEE LKSHOR 0530   63      40/  5/  6 1017.1F
$$




USA.gov is the U.S. government's official web portal to all federal, state and local government web resources and services.